PEGASUS DEB

Satellite information

Favourite Embed

Satellite Type and Status

DEBRISIN ORBIT

Key statistics

Satellite PEGASUS DEB at a glance.

Uptime

11532

Days in orbit

Revolutions

≈ 14.3

Per day

Orbit

LEO

Low Earth Orbit

Inclination

81.3

Latest

Satellite identification and parameters

Extended collection of information and parameters for PEGASUS DEB.

Object identification

Identified? True

Debris? True

Object name: PEGASUS DEB

International designator: 1994-029AFM

Object number (NORAD): 39914

Object ID (CCSDS): 39914

Country: UNITED STATES OF AMERICA (US)

Current information (Y/N): Y

RCS size: SMALL

Orbital parameters

Period: 100.552 minutes

Inclination: 81.3408 deg

SMA: 7162.875 km

Apoapsis: 1028.408 km

Periapsis: 541.071 km

RAAN: 164.3808 deg

Eccentricy: 0.03401826

Argument of periapsis: 319.1686 deg

Mean anomaly: 38.4449 deg

Mean motion: 14.32094702 rev/day

Mean motion (dot): 0.0000767 rev/day2

B* drag term: 0.0014939694 1/REarth

Two-line elements (TLE)

Creation date: Dec. 9, 2025, 5:08 a.m.

Reference frame: TEME

Reference center: EARTH

Epoch: Dec. 8, 2025, 6:10 p.m. UTC

TLE line 0: 0 PEGASUS DEB

TLE line 1: 1 39914U 94029AFM 25342.75740280 .00007670 00000-0 14940-2 0 9999

TLE line 2: 2 39914 81.3408 164.3808 0340183 319.1686 38.4449 14.32094702591879

Live tracking on map

Real-time ground track for satellite PEGASUS DEB.

In-orbit conjunctions

A list of the most updated potential collisions computed for object PEGASUS DEB.

Target Orbit TCA Probability of collision Miss distance Type
CZ-6A DEB LEO 2024-11-07 02:33:57 0.0002283595 229.0 (m) DEBRIS
FENGYUN 1C DEB SSO 2024-09-24 20:45:21 0.0003705736 521.0 (m) DEBRIS

Associated space launch

PEGASUS DEB was lifted into orbit during the mission ‘Pegasus HAPS | Space Test Experiments Platform 2 (STEP-2)’, on board a Pegasus HAPS space rocket.

The launch took place on May 19, 1994, 5:03 p.m. from Edwards Air Force Base.

For more information about the launch, click the button.

Launch to space Pegasus HAPS | Space Test Experiments Platform 2 (STEP-2)
Pegasus HAPS | Space Test Experiments Platform 2 (STEP-2)

Agency: N/A

Status: Launch Successful

Launch date: May 19, 1994, 5:03 p.m. UTC

Rocket: Pegasus HAPS

Launch pad: Edwards Air Force Base

Location: Air launch to orbit

...

Latest news about this satellite

There are no fresh news available about this satellite. Check back as we update our databases every day.


Newsletter sign-up

Weekly statistics, charts and insights to help you stay on top of the space industry.